Weather History for Pipestone, MN

Change the Weather History Date:

Thursday, January 16, 2014

  Actual Average Record
Temperature  
Mean Temperature 21 °F -  
Max Temperature 37 °F 21 °F 39 °F (2004)
Min Temperature 5 °F 6 °F -14 °F (2009)
Degree Days  
Heating Degree Days 44    
Moisture  
Dew Point 12 °F    
Average Humidity 75    
Maximum Humidity 93    
Minimum Humidity 61    
Precipitation  
Precipitation 0.00 in - - ()
Sea Level Pressure  
Sea Level Pressure 29.72 in    
Wind  
Wind Speed 23 mph (NNW)    
Max Wind Speed 33 mph    
Max Gust Speed 45 mph    
Visibility 7 miles    
Events Snow    
Averages and records for this station are not official NWS values.
T = Trace of Precipitation, MM = Missing Value Source: NWS Daily Summary

Daily Weather History Graph

Daily Weather History Graph

Search for Another Location

Airport:

Trip Planner

Search our weather history database for the weather conditions in past years. The results will help you decide how hot, cold, wet, or windy it might be!

Date:

Astronomy

Jan. 16, 2014 Rise Set
Actual Time 7:56 AM CST 5:14 PM CST
Civil Twilight 7:24 AM CST 5:46 PM CST
Nautical Twilight 6:48 AM CST 6:21 PM CST
Astronomical Twilight 6:13 AM CST 6:56 PM CST
Moon 6:10 PM CST (1/16) 7:47 AM CST (1/16)
Length of Visible Light 10h 22m
Length of Day
9h 18m
Full, 100% of the Moon is Illuminated
Jan 16
Full
Jan 23
Last Quarter
Jan 30
New
Feb 6
First Quarter
Feb 14
Full

Hourly Weather History & Observations

Time (CST) Temp. Windchill Dew Point Humidity Pressure Visibility Wind Dir Wind Speed Gust Speed Precip Events Conditions
12:13 AM 37.4 °F 26.9 °F 26.6 °F 65% 29.52 in 10.0 mi NW 20.7 mph 28.8 mph N/A   Scattered Clouds
12:34 AM 35.6 °F 24.2 °F 24.8 °F 65% 29.51 in 10.0 mi NW 21.9 mph 29.9 mph N/A   Clear
12:53 AM 35.6 °F 24.5 °F 24.8 °F 65% 29.51 in 10.0 mi NW 20.7 mph 29.9 mph N/A   Clear
1:13 AM 35.6 °F 24.8 °F 24.8 °F 65% 29.51 in 10.0 mi NW 19.6 mph 26.5 mph N/A   Clear
1:34 AM 35.6 °F 23.7 °F 24.8 °F 65% 29.51 in 10.0 mi NW 24.2 mph 31.1 mph N/A   Scattered Clouds
1:53 AM 35.6 °F 24.5 °F 24.8 °F 65% 29.51 in 10.0 mi NW 20.7 mph 29.9 mph N/A   Mostly Cloudy
2:13 AM 35.6 °F 24.5 °F 26.6 °F 70% 29.52 in 10.0 mi NW 20.7 mph 29.9 mph N/A   Overcast
2:33 AM 35.6 °F 24.0 °F 26.6 °F 70% 29.52 in 10.0 mi NW 23.0 mph 33.4 mph N/A   Overcast
2:53 AM 35.6 °F 24.2 °F 26.6 °F 70% 29.52 in 10.0 mi NW 21.9 mph 35.7 mph N/A   Overcast
3:13 AM 33.8 °F 20.8 °F 28.4 °F 81% 29.52 in 10.0 mi NW 26.5 mph 34.5 mph N/A   Overcast
3:33 AM 33.8 °F 21.6 °F 28.4 °F 81% 29.52 in 10.0 mi NW 23.0 mph 33.4 mph N/A   Overcast
3:54 AM 33.8 °F 21.6 °F 28.4 °F 81% 29.51 in 5.0 mi NW 23.0 mph 40.3 mph N/A   Overcast
4:13 AM 33.8 °F 21.6 °F 28.4 °F 81% 29.51 in 10.0 mi NW 23.0 mph 33.4 mph N/A Snow Light Snow
4:33 AM 33.8 °F 20.8 °F 30.2 °F 87% 29.53 in 1.2 mi NW 26.5 mph 32.2 mph N/A Snow Light Snow
4:54 AM 30.2 °F 16.2 °F 28.4 °F 93% 29.53 in 0.8 mi NW 25.3 mph 41.4 mph N/A Snow Snow
5:13 AM 30.2 °F 17.8 °F 26.6 °F 86% 29.54 in 7.0 mi NW 19.6 mph 26.5 mph N/A Snow Light Snow
5:33 AM 30.2 °F 16.2 °F 26.6 °F 86% 29.54 in 2.0 mi NW 25.3 mph 32.2 mph N/A Snow Light Snow
5:53 AM 30.2 °F 17.4 °F 24.8 °F 80% 29.55 in 3.0 mi NW 20.7 mph 31.1 mph N/A   Overcast
6:13 AM 30.2 °F 15.9 °F 24.8 °F 80% 29.57 in 2.5 mi NNW 26.5 mph 42.6 mph N/A   Overcast
6:33 AM 30.2 °F 15.7 °F 23.0 °F 75% 29.58 in 2.0 mi NNW 27.6 mph 36.8 mph N/A Snow Light Snow
6:53 AM 28.4 °F 12.7 °F 24.8 °F 86% 29.58 in 2.0 mi NNW 29.9 mph 38.0 mph N/A Snow Light Snow
7:14 AM 28.4 °F 14.4 °F 23.0 °F 80% 29.58 in 2.0 mi NNW 23.0 mph 39.1 mph N/A Snow Light Snow
7:33 AM 28.4 °F 14.7 °F 21.2 °F 74% 29.59 in 7.0 mi NNW 21.9 mph 31.1 mph N/A   Mostly Cloudy
7:53 AM 28.4 °F 13.8 °F 21.2 °F 74% 29.59 in 2.5 mi NNW 25.3 mph 35.7 mph N/A Snow Light Snow
8:14 AM 28.4 °F 16.6 °F 21.2 °F 74% 29.59 in 10.0 mi NNW 16.1 mph 24.2 mph N/A   Scattered Clouds
8:33 AM 28.4 °F 15.8 °F 19.4 °F 69% 29.59 in 10.0 mi NNW 18.4 mph 26.5 mph N/A   Mostly Cloudy
8:53 AM 28.4 °F 14.1 °F 19.4 °F 69% 29.60 in 10.0 mi NNW 24.2 mph 27.6 mph N/A   Overcast
9:14 AM 28.4 °F 14.7 °F 19.4 °F 69% 29.61 in 10.0 mi NW 21.9 mph 33.4 mph N/A   Overcast
9:33 AM 28.4 °F 14.1 °F 19.4 °F 69% 29.62 in 10.0 mi NW 24.2 mph 32.2 mph N/A   Overcast
9:53 AM 28.4 °F 14.1 °F 19.4 °F 69% 29.62 in 10.0 mi NW 24.2 mph 29.9 mph N/A   Overcast
10:14 AM 28.4 °F 14.7 °F 21.2 °F 74% 29.62 in 7.0 mi NNW 21.9 mph 29.9 mph N/A Snow Light Snow
10:33 AM 28.4 °F 14.7 °F 21.2 °F 74% 29.62 in 10.0 mi NNW 21.9 mph 29.9 mph N/A   Scattered Clouds
10:53 AM 28.4 °F 16.2 °F 21.2 °F 74% 29.62 in 7.0 mi NNW 17.3 mph 26.5 mph N/A Snow Light Snow
11:14 AM 26.6 °F 13.1 °F 21.2 °F 80% 29.63 in 0.8 mi North 19.6 mph 28.8 mph N/A Snow Light Snow
11:33 AM 24.8 °F 9.3 °F 19.4 °F 80% 29.63 in 0.5 mi NNW 24.2 mph 39.1 mph N/A Snow Snow
11:53 AM - - - N/A% 29.65 in - NNE 18.4 mph - N/A   Unknown
12:13 PM 17.6 °F -0.6 °F 12.2 °F 79% 29.69 in - NNE 25.3 mph 34.5 mph N/A   Overcast
12:33 PM 14.0 °F -5.1 °F 10.4 °F 86% 29.71 in - North 24.2 mph 32.2 mph N/A   Unknown
12:53 PM 12.2 °F -8.6 °F 8.6 °F 85% 29.73 in - North 27.6 mph 44.9 mph N/A   Unknown
1:13 PM 12.2 °F -7.1 °F 6.8 °F 79% 29.75 in - North 23.0 mph 39.1 mph N/A   Overcast
1:34 PM 8.6 °F -11.4 °F 5.0 °F 85% 29.75 in - North 21.9 mph 32.2 mph N/A   Unknown
1:53 PM 8.6 °F -14.5 °F 3.2 °F 79% 29.78 in - NNW 31.1 mph 38.0 mph N/A   Overcast
2:13 PM 6.8 °F -16.9 °F 1.4 °F 79% 29.79 in - North 31.1 mph 43.7 mph N/A   Unknown
2:33 PM 6.8 °F -17.6 °F -0.4 °F 72% 29.81 in - NNW 33.4 mph 44.9 mph N/A   Scattered Clouds
2:54 PM 6.8 °F -15.5 °F -0.4 °F 72% 29.82 in - North 26.5 mph 42.6 mph N/A   Scattered Clouds
3:13 PM 6.8 °F -15.5 °F -0.4 °F 72% 29.84 in - NNW 26.5 mph 41.4 mph N/A   Scattered Clouds
3:33 PM 6.8 °F -17.3 °F 1.4 °F 79% 29.85 in - NNW 32.2 mph 42.6 mph N/A   Mostly Cloudy
3:53 PM 5.0 °F -19.4 °F -0.4 °F 78% 29.86 in - North 31.1 mph 43.7 mph N/A   Unknown
4:13 PM 6.8 °F -14.7 °F -0.4 °F 72% 29.88 in - NNW 24.2 mph 38.0 mph N/A   Mostly Cloudy
4:33 PM 5.0 °F -18.3 °F -0.4 °F 78% 29.88 in - NNW 27.6 mph 36.8 mph N/A   Unknown
4:53 PM 6.8 °F -16.2 °F -2.2 °F 67% 29.88 in - NNW 28.8 mph 39.1 mph N/A   Scattered Clouds
5:13 PM 6.8 °F -15.1 °F -0.4 °F 72% 29.90 in - NNW 25.3 mph 40.3 mph N/A   Mostly Cloudy
5:33 PM 6.8 °F -15.1 °F 1.4 °F 79% 29.90 in - NNW 25.3 mph 40.3 mph N/A   Overcast
5:53 PM 6.8 °F -14.7 °F 3.2 °F 85% 29.91 in - NNW 24.2 mph 29.9 mph N/A   Overcast
6:13 PM 6.8 °F -15.9 °F 3.2 °F 85% 29.91 in - NNW 27.6 mph 39.1 mph N/A   Overcast
6:33 PM 6.8 °F -15.1 °F 3.2 °F 85% 29.92 in - NNW 25.3 mph 41.4 mph N/A   Overcast
6:53 PM 6.8 °F -14.7 °F 1.4 °F 79% 29.91 in 2.5 mi North 24.2 mph 40.3 mph N/A Snow Light Snow
7:13 PM 6.8 °F -15.1 °F 3.2 °F 85% 29.93 in 2.5 mi NNW 25.3 mph 34.5 mph N/A   Mostly Cloudy
7:33 PM 6.8 °F -15.1 °F 1.4 °F 79% 29.94 in 2.0 mi North 25.3 mph 35.7 mph N/A Snow Light Snow
7:53 PM 6.8 °F -13.8 °F 3.2 °F 85% 29.94 in 4.0 mi NNW 21.9 mph 32.2 mph N/A   Overcast
8:13 PM 8.6 °F -12.7 °F 1.4 °F 73% 29.94 in 7.0 mi NNW 25.3 mph 34.5 mph N/A   Overcast
8:33 PM 8.6 °F -11.9 °F -0.4 °F 67% 29.95 in 10.0 mi NNW 23.0 mph 35.7 mph N/A   Scattered Clouds
8:53 PM 6.8 °F -15.1 °F -2.2 °F 67% 29.95 in 10.0 mi NNW 25.3 mph 34.5 mph N/A   Clear
9:13 PM 6.8 °F -14.7 °F -2.2 °F 67% 29.96 in 10.0 mi North 24.2 mph 38.0 mph N/A   Clear
9:34 PM 6.8 °F -14.3 °F -2.2 °F 67% 29.96 in 10.0 mi NNW 23.0 mph 31.1 mph N/A   Clear
9:53 PM 6.8 °F -14.3 °F -2.2 °F 67% 29.96 in 10.0 mi NNW 23.0 mph 36.8 mph N/A   Clear
10:13 PM 6.8 °F -15.5 °F -2.2 °F 67% 29.96 in 10.0 mi NNW 26.5 mph 35.7 mph N/A   Clear
10:34 PM 6.8 °F -13.8 °F -2.2 °F 67% 29.97 in 10.0 mi NNW 21.9 mph 32.2 mph N/A   Clear
10:53 PM 5.0 °F -17.1 °F -4.0 °F 66% 29.97 in 10.0 mi NNW 24.2 mph 29.9 mph N/A   Clear
11:13 PM 5.0 °F -17.1 °F -4.0 °F 66% 29.98 in 10.0 mi NNW 24.2 mph 33.4 mph N/A   Clear
11:34 PM 5.0 °F -15.7 °F -4.0 °F 66% 29.97 in 10.0 mi NNW 20.7 mph 28.8 mph N/A   Clear
11:53 PM 5.0 °F -16.7 °F -5.8 °F 61% 29.97 in 10.0 mi North 23.0 mph 31.1 mph N/A   Clear